• In Netherlands
  • List of Countries
  • For 7 days
  • Water Temperature
  • Satellite Maps
  • Weather Map
  • Weather Widgets
  • user-avatar
    Login

    Hourly Weather Mayrhofen

    Today, 25 February, Saturday

    Time Temperature Precipitation Wind Pressure Humidity
    00:00 -9°C° 0.1 mm 2 mps 613 mmHg 96%
    01:00 -9°C° 0 mm 1 mps 613 mmHg 96%
    02:00 -10°C° 0 mm 1 mps 613 mmHg 96%
    03:00 -12°C° 0 mm 2 mps 613 mmHg 96%
    04:00 -13°C° 0 mm 2 mps 613 mmHg 96%
    05:00 -15°C° 0 mm 2 mps 612 mmHg 95%
    06:00 -14°C° 0 mm 1 mps 612 mmHg 95%
    07:00 -15°C° 0 mm 1 mps 611 mmHg 94%
    08:00 -12°C° 0 mm 1 mps 613 mmHg 91%
    09:00 -8°C° 0 mm 1 mps 615 mmHg 87%
    10:00 -3°C° 0 mm 1 mps 617 mmHg 84%
    11:00 -2°C° 0 mm 1 mps 617 mmHg 83%
    12:00 -2°C° 0 mm 0 mps 617 mmHg 81%
    13:00 -1°C° 0 mm 0 mps 618 mmHg 79%
    14:00 0°C° 0 mm 0 mps 617 mmHg 82%
    15:00 0°C° 0 mm 0 mps 617 mmHg 85%
    16:00 0°C° 0 mm 0 mps 617 mmHg 88%
    17:00 -2°C° 0 mm 1 mps 616 mmHg 90%
    18:00 -6°C° 0 mm 1 mps 615 mmHg 92%
    19:00 -8°C° 0 mm 1 mps 614 mmHg 94%
    20:00 -8°C° 0 mm 1 mps 614 mmHg 93%
    21:00 -9°C° 0 mm 2 mps 614 mmHg 92%
    22:00 -8°C° 0 mm 2 mps 614 mmHg 91%
    23:00 -8°C° 0 mm 2 mps 614 mmHg 89%

    Tomorrow, 26 February, Sunday

    Time Temperature Precipitation Wind Pressure Humidity
    00:00 -8°C° 0 mm 2 mps 614 mmHg 88%
    01:00 -8°C° 0 mm 2 mps 614 mmHg 87%
    02:00 -8°C° 0 mm 2 mps 614 mmHg 86%
    03:00 -8°C° 0 mm 2 mps 614 mmHg 85%
    04:00 -8°C° 0 mm 2 mps 613 mmHg 84%
    05:00 -8°C° 0 mm 2 mps 613 mmHg 83%
    06:00 -7°C° 0 mm 2 mps 613 mmHg 82%
    07:00 -7°C° 0 mm 2 mps 613 mmHg 82%
    08:00 -3°C° 0 mm 1 mps 614 mmHg 84%
    09:00 0°C° 0 mm 1 mps 615 mmHg 86%
    10:00 +3°C° 0 mm 1 mps 616 mmHg 88%
    11:00 +3°C° 0 mm 1 mps 616 mmHg 88%
    12:00 +4°C° 0 mm 1 mps 616 mmHg 89%
    13:00 +3°C° 0 mm 0 mps 616 mmHg 89%
    14:00 +3°C° 0 mm 0 mps 616 mmHg 91%
    15:00 +3°C° 0 mm 0 mps 616 mmHg 92%
    16:00 +3°C° 0 mm 0 mps 616 mmHg 94%
    17:00 +1°C° 0 mm 0 mps 615 mmHg 92%
    18:00 -1°C° 0 mm 0 mps 614 mmHg 91%
    19:00 -3°C° 0 mm 0 mps 613 mmHg 90%
    20:00 -3°C° 0 mm 0 mps 613 mmHg 89%
    21:00 -3°C° 0 mm 0 mps 613 mmHg 89%
    22:00 -3°C° 0 mm 0 mps 613 mmHg 88%
    23:00 -3°C° 0 mm 0 mps 613 mmHg 88%

    Day after tomorrow, 27 February, Monday

    Time Temperature Precipitation Wind Pressure Humidity
    00:00 -2°C° 0 mm 1 mps 613 mmHg 88%
    01:00 -2°C° 0 mm 1 mps 613 mmHg 88%
    02:00 -2°C° 0 mm 1 mps 612 mmHg 89%
    03:00 -3°C° 0 mm 1 mps 612 mmHg 90%
    04:00 -3°C° 0 mm 1 mps 612 mmHg 91%
    05:00 -3°C° 0 mm 1 mps 612 mmHg 91%
    06:00 -5°C° 0 mm 2 mps 612 mmHg 91%
    07:00 -5°C° 0 mm 2 mps 611 mmHg 91%
    08:00 -3°C° 0 mm 2 mps 612 mmHg 90%
    09:00 -2°C° 0 mm 2 mps 612 mmHg 89%
    10:00 +1°C° 0 mm 2 mps 613 mmHg 87%
    11:00 +2°C° 0 mm 2 mps 613 mmHg 86%
    12:00 +2°C° 0 mm 2 mps 612 mmHg 85%
    13:00 +3°C° 0 mm 2 mps 612 mmHg 84%
    14:00 +3°C° 0 mm 2 mps 612 mmHg 86%
    15:00 +3°C° 0 mm 2 mps 611 mmHg 87%
    16:00 +3°C° 0 mm 1 mps 611 mmHg 89%
    17:00 +1°C° 0 mm 2 mps 610 mmHg 91%
    18:00 -2°C° 0 mm 2 mps 609 mmHg 92%
    19:00 -4°C° 0 mm 2 mps 609 mmHg 94%
    20:00 -4°C° 0 mm 2 mps 609 mmHg 94%
    21:00 -5°C° 0 mm 3 mps 609 mmHg 94%
    22:00 -6°C° 0 mm 3 mps 608 mmHg 94%
    23:00 -6°C° 0 mm 3 mps 608 mmHg 94%

    28 February, Tuesday

    Time Temperature Precipitation Wind Pressure Humidity
    00:00 -6°C° 0 mm 3 mps 608 mmHg 93%
    01:00 -6°C° 0 mm 3 mps 608 mmHg 93%
    02:00 -6°C° 0 mm 3 mps 607 mmHg 93%
    03:00 -6°C° 0 mm 3 mps 607 mmHg 93%
    04:00 -6°C° 0 mm 3 mps 607 mmHg 93%
    05:00 -5°C° 0 mm 2 mps 606 mmHg 93%
    06:00 -4°C° 0 mm 2 mps 606 mmHg 94%
    07:00 -4°C° 0 mm 2 mps 606 mmHg 94%
    08:00 -3°C° 0.1 mm 2 mps 606 mmHg 92%
    09:00 -2°C° 0.1 mm 2 mps 606 mmHg 90%
    10:00 -1°C° 0.1 mm 2 mps 606 mmHg 89%
    11:00 +1°C° 0.3 mm 2 mps 606 mmHg 88%
    12:00 0°C° 0.3 mm 3 mps 605 mmHg 88%
    13:00 +1°C° 0.3 mm 3 mps 605 mmHg 87%
    14:00 +1°C° 0.6 mm 3 mps 604 mmHg 89%
    15:00 +1°C° 0.6 mm 3 mps 604 mmHg 91%
    16:00 +1°C° 0.6 mm 2 mps 604 mmHg 93%
    17:00 -1°C° 1.8 mm 2 mps 603 mmHg 95%
    18:00 -2°C° 1.8 mm 2 mps 603 mmHg 96%
    19:00 -3°C° 1.8 mm 2 mps 603 mmHg 98%
    20:00 -3°C° 2 mm 2 mps 603 mmHg 97%
    21:00 -5°C° 2 mm 3 mps 604 mmHg 97%
    22:00 -5°C° 2 mm 3 mps 604 mmHg 97%
    23:00 -6°C° 0.6 mm 3 mps 604 mmHg 96%

    1 March, Wednesday

    Time Temperature Precipitation Wind Pressure Humidity
    00:00 -6°C° 0.6 mm 2 mps 605 mmHg 95%
    01:00 -7°C° 0.6 mm 2 mps 605 mmHg 94%
    02:00 -7°C° 0.3 mm 2 mps 606 mmHg 94%
    03:00 -7°C° 0.3 mm 2 mps 607 mmHg 94%
    04:00 -8°C° 0.3 mm 2 mps 608 mmHg 94%
    05:00 -9°C° 0.1 mm 2 mps 608 mmHg 94%
    06:00 -9°C° 0.1 mm 2 mps 609 mmHg 94%
    07:00 -10°C° 0.1 mm 2 mps 610 mmHg 94%
    08:00 -9°C° 0 mm 2 mps 611 mmHg 93%
    09:00 -6°C° 0 mm 1 mps 612 mmHg 91%
    10:00 -4°C° 0 mm 1 mps 613 mmHg 89%
    11:00 -2°C° 0 mm 1 mps 613 mmHg 89%
    12:00 -3°C° 0 mm 2 mps 613 mmHg 88%
    13:00 -1°C° 0 mm 2 mps 613 mmHg 88%
    14:00 -1°C° 0 mm 2 mps 613 mmHg 89%
    15:00 -1°C° 0 mm 2 mps 613 mmHg 91%
    16:00 -1°C° 0 mm 2 mps 613 mmHg 92%
    17:00 -2°C° 0.1 mm 2 mps 613 mmHg 92%
    18:00 -3°C° 0.1 mm 2 mps 612 mmHg 93%
    19:00 -4°C° 0.1 mm 2 mps 612 mmHg 93%
    20:00 -5°C° 0.1 mm 2 mps 612 mmHg 92%
    21:00 -5°C° 0.1 mm 2 mps 612 mmHg 90%
    22:00 -5°C° 0.1 mm 2 mps 612 mmHg 89%
    23:00 -5°C° 0.2 mm 2 mps 612 mmHg 89%

    2 March, Thursday

    Time Temperature Precipitation Wind Pressure Humidity
    00:00 -5°C° 0.2 mm 2 mps 612 mmHg 88%
    01:00 -5°C° 0.2 mm 2 mps 612 mmHg 88%
    02:00 -4°C° 0.6 mm 2 mps 613 mmHg 89%
    03:00 -4°C° 0.6 mm 2 mps 614 mmHg 90%
    04:00 -1°C° 0.6 mm 1 mps 614 mmHg 92%
    05:00 -2°C° 0.2 mm 1 mps 614 mmHg 93%
    06:00 -4°C° 0.2 mm 2 mps 615 mmHg 94%
    07:00 -4°C° 0.2 mm 2 mps 615 mmHg 95%
    08:00 -3°C° 0 mm 2 mps 616 mmHg 94%
    09:00 0°C° 0 mm 1 mps 616 mmHg 94%
    10:00 +1°C° 0 mm 1 mps 617 mmHg 94%
    11:00 +2°C° 0 mm 1 mps 617 mmHg 92%
    12:00 +3°C° 0 mm 1 mps 617 mmHg 90%
    13:00 +2°C° 0 mm 0 mps 617 mmHg 89%
    14:00 +3°C° 0 mm 1 mps 617 mmHg 90%
    15:00 +3°C° 0 mm 1 mps 616 mmHg 91%
    16:00 +3°C° 0 mm 1 mps 616 mmHg 92%
    17:00 +2°C° 0 mm 1 mps 616 mmHg 93%
    18:00 0°C° 0 mm 1 mps 615 mmHg 94%
    19:00 -3°C° 0 mm 2 mps 615 mmHg 95%
    20:00 -3°C° 0 mm 2 mps 615 mmHg 95%
    21:00 -3°C° 0 mm 2 mps 615 mmHg 95%
    22:00 -4°C° 0 mm 2 mps 615 mmHg 95%
    23:00 -4°C° 0 mm 2 mps 615 mmHg 95%
    Show more